Theta_e
316 318 321 323 324 326 328 329 334 334 333 333 335 334 336 335 337 339 341 349 348 350 351 349 349 348 348 349 349 348 348 348 345 344 343 340 338 336 335 333 332 331 330
316 319 319 321 323 324 327 331 334 332 332 333 332 334 336 336 336 337 339 341 346 348 350 351 349 348 348 347 347 348 347 346 344 342 339 337 336 334 333 331 329 328 326
319 320 320 322 322 327 330 332 331 330 330 331 331 333 334 334 335 335 335 337 341 346 348 350 350 349 348 347 347 346 345 343 341 338 336 335 333 331 329 327 326 326 325
324 321 321 323 329 329 330 330 330 328 328 328 329 331 332 332 333 334 334 335 337 341 346 348 349 349 349 347 346 346 344 341 338 336 334 331 328 325 325 324 324 325 325
328 326 325 328 330 329 329 329 328 328 327 327 328 330 330 329 330 331 332 333 336 336 338 346 347 347 348 347 346 345 342 338 336 334 331 327 324 324 323 323 323 324 324
328 328 325 328 328 327 326 327 326 328 329 327 327 328 329 328 329 330 331 333 334 335 337 339 340 342 346 347 345 343 340 338 335 331 326 326 323 322 322 322 323 323 323
329 327 326 328 328 326 326 327 327 326 326 327 325 324 326 327 327 328 330 329 331 333 334 336 336 338 340 343 342 341 340 337 333 327 323 326 324 321 321 321 322 321 322
328 327 327 327 328 326 326 326 326 325 325 326 322 322 317 321 324 325 326 327 327 329 329 330 331 332 332 333 337 340 338 337 332 325 321 324 323 320 320 320 321 321 321
328 327 326 328 328 328 326 325 325 324 321 324 323 318 316 314 317 321 321 323 323 324 325 325 326 327 329 332 333 336 339 336 334 327 323 322 321 323 321 320 320 321 321
328 327 327 327 327 328 327 326 327 324 324 319 320 323 323 321 314 311 318 317 317 317 318 322 322 323 325 325 333 336 336 336 332 330 328 327 324 323 321 320 321 322 322
329 329 327 327 326 326 328 328 325 325 323 322 321 320 321 318 318 316 309 310 312 312 316 319 320 319 322 321 322 330 331 328 326 326 326 324 323 322 322 321 322 323 323
324 327 329 328 328 327 327 328 327 325 323 323 323 322 320 318 317 314 309 306 306 308 311 313 316 318 317 316 323 328 326 324 322 321 322 324 322 319 319 319 320 320 321
319 324 326 327 328 326 326 326 325 325 324 323 321 320 321 321 320 317 313 303 303 303 302 307 312 311 311 310 311 325 326 323 320 318 318 319 319 320 318 318 319 319 319
316 320 326 326 326 326 326 323 322 323 324 322 321 322 321 320 320 316 308 301 297 300 303 300 305 307 307 309 312 325 314 320 317 315 315 316 317 317 317 317 316 315 315
318 316 317 318 319 321 322 320 320 319 319 319 320 321 319 316 315 309 305 302 301 301 301 304 301 305 307 310 314 314 310 316 319 315 314 314 314 313 313 313 314 315 315
317 318 319 319 319 318 317 318 318 318 319 318 316 313 311 309 306 304 303 308 306 303 300 303 306 306 309 314 316 312 310 320 318 315 313 311 310 310 311 311 313 314 312
315 316 317 318 317 316 318 320 319 320 319 318 318 318 316 314 309 306 307 313 309 308 303 307 310 312 314 313 315 313 315 313 313 313 313 310 308 308 309 310 312 312 308
314 315 316 317 317 317 317 317 315 315 315 314 314 314 313 317 312 312 312 312 312 311 308 309 310 307 307 306 304 303 306 311 308 313 311 310 308 307 307 308 310 307 305
312 313 314 315 316 316 314 312 311 310 308 308 309 309 309 310 308 307 307 309 307 312 313 311 302 300 300 299 300 301 301 303 309 313 309 309 308 307 306 306 308 306 304
309 309 311 313 314 314 313 310 308 304 302 301 301 302 305 307 307 306 306 306 306 309 304 302 299 297 297 297 298 297 296 297 297 302 305 305 305 304 305 305 306 308 304
309 307 306 307 310 312 312 306 303 299 296 296 296 298 301 306 309 307 304 302 304 303 299 297 295 294 293 294 294 295 293 293 295 295 296 296 293 292 294 297 300 302 303
305 305 304 304 305 309 303 304 301 297 295 293 293 293 296 302 303 304 304 304 303 301 297 296 293 292 291 292 293 293 291 290 290 293 294 292 291 289 291 293 301 301 301
303 302 301 301 302 304 301 301 302 297 293 292 291 291 292 297 299 298 299 301 302 302 301 297 294 291 290 291 293 291 291 290 290 292 291 289 290 288 290 294 299 300 299
301 300 300 300 300 301 300 300 301 298 296 295 295 295 292 292 294 296 293 293 294 295 296 297 294 292 290 292 294 293 292 291 292 291 289 287 288 287 289 291 297 298 298
302 301 301 300 299 299 298 300 303 303 302 301 302 301 296 295 294 294 292 290 289 290 295 295 293 293 292 293 293 291 289 288 286 287 290 287 287 287 287 289 291 297 297
306 304 301 300 300 299 296 298 301 302 300 300 299 300 300 298 294 293 289 288 287 287 288 287 288 289 290 291 295 291 290 288 287 286 290 287 286 286 286 288 288 290 289
Wind_Speed
1 2 3 4 4 3 4 4 7 7 9 10 8 10 11 11 10 3 6 19 19 20 22 23 22 21 20 18 18 17 16 16 16 16 16 16 15 14 14 13 12 12 13
3 3 3 4 4 4 3 4 8 8 9 10 10 11 11 12 8 5 6 8 18 19 21 21 22 21 20 18 16 17 16 14 16 16 16 14 13 12 12 12 11 12 13
4 4 3 3 2 4 9 8 10 9 9 9 12 11 11 12 11 6 4 5 12 18 17 19 19 19 19 17 17 16 16 15 15 15 15 13 11 11 11 11 10 12 12
4 1 2 4 5 9 6 9 10 9 10 10 9 10 11 10 13 7 3 1 4 7 13 17 17 17 17 18 18 17 16 15 14 14 13 13 12 12 10 9 9 10 10
5 5 5 8 11 6 6 9 9 10 10 10 9 9 10 9 10 5 5 3 5 5 3 15 14 14 15 16 16 16 15 15 13 13 12 11 11 10 8 8 8 9 7
10 3 5 8 8 6 6 8 11 8 10 11 11 9 9 7 7 5 6 3 6 6 6 6 5 6 12 14 14 15 15 15 13 12 11 10 9 8 7 7 8 7 6
7 3 5 7 5 7 8 9 9 12 9 11 9 10 10 9 8 5 4 5 4 5 8 5 3 3 4 14 11 13 13 13 12 11 10 8 7 6 5 4 5 4 3
7 5 9 7 8 8 9 8 9 7 8 5 10 10 9 7 6 6 4 5 3 5 6 6 5 6 5 4 7 9 10 11 10 9 8 7 7 6 5 4 3 1 1
4 3 5 7 7 6 6 8 7 9 6 5 4 4 8 5 6 3 5 4 5 5 5 5 5 5 5 4 5 4 9 9 8 7 6 4 3 2 3 2 1 1 3
5 2 3 6 6 5 7 4 4 4 9 5 2 5 9 6 4 5 3 4 5 4 4 2 4 4 5 4 5 8 8 7 7 7 6 6 3 1 1 2 2 3 4
6 4 4 5 5 3 7 8 5 5 3 3 3 4 10 5 5 4 4 3 4 3 3 2 2 2 3 4 3 5 8 7 5 3 2 2 3 4 4 4 4 7 8
3 4 8 6 5 4 5 7 5 5 4 4 4 6 7 5 6 4 4 3 3 1 1 2 2 2 2 1 3 6 7 5 3 1 2 2 2 3 4 5 7 8 10
5 4 5 6 5 5 5 5 5 5 5 4 6 4 2 4 4 4 5 3 3 1 0 0 2 3 3 2 1 3 4 4 5 4 4 3 4 4 5 7 8 9 11
3 7 5 3 5 6 6 6 4 4 6 5 8 5 4 4 4 4 5 6 4 2 2 2 1 2 2 2 4 6 3 6 7 4 3 5 6 7 7 7 8 9 9
4 7 7 6 6 6 6 8 6 6 6 5 6 6 5 4 5 4 4 3 5 4 0 3 2 4 3 2 3 2 3 5 5 8 8 8 7 6 5 5 6 6 7
6 7 7 7 7 7 8 9 8 7 10 5 4 7 4 3 5 4 5 3 3 5 4 3 4 3 2 0 3 3 3 2 6 10 10 8 7 7 7 6 4 2 8
7 7 7 7 7 8 8 11 10 11 11 9 7 8 7 6 5 4 4 2 3 3 5 1 1 1 3 3 5 4 5 6 6 10 9 8 8 9 8 7 5 8 5
5 6 6 7 7 7 8 10 10 8 10 9 7 10 7 7 7 5 4 4 4 3 5 4 3 4 6 4 4 7 4 4 5 8 8 9 10 9 9 8 5 7 4
6 6 8 8 7 7 9 7 8 8 8 7 6 8 6 7 6 3 3 5 4 3 3 6 3 3 3 3 6 4 4 4 3 6 8 9 9 9 9 9 4 2 5
7 7 7 6 6 7 7 7 8 7 7 6 6 6 6 6 7 5 5 5 5 6 5 7 4 2 2 2 4 3 3 3 2 3 5 5 6 9 10 6 7 4 5
6 7 8 6 6 7 5 8 7 7 8 7 6 5 5 6 7 4 4 4 6 5 4 4 3 2 1 2 2 1 2 1 1 2 1 3 3 3 4 4 7 9 3
7 7 7 7 6 4 8 10 8 7 6 7 7 5 5 8 9 9 8 5 3 10 4 5 3 3 3 3 2 3 3 2 2 2 2 1 1 2 3 4 10 10 9
6 7 6 7 6 5 7 10 11 6 6 6 6 5 4 3 5 6 7 9 8 7 4 7 7 6 5 7 6 3 3 3 3 2 2 2 2 3 2 5 10 7 6
6 5 5 6 6 4 9 11 9 7 5 5 5 6 5 6 4 6 5 5 4 2 2 3 6 7 5 7 6 6 6 3 2 2 1 1 2 2 3 4 8 10 9
5 5 5 7 7 5 9 12 10 6 5 7 6 7 7 7 8 7 6 5 2 3 6 8 6 6 7 7 6 5 2 3 0 2 2 2 3 3 2 4 5 8 10
6 5 6 7 8 8 10 13 10 5 7 5 5 7 11 8 8 9 7 6 6 4 3 3 3 4 4 3 4 2 5 3 1 2 3 2 2 2 5 3 3 5 5
Wind_Direction
295 266 264 224 211 173 165 146 134 127 123 122 108 114 124 132 134 143 153 151 153 145 140 144 146 144 143 143 134 128 126 125 121 117 112 111 112 110 104 98 90 79 67
266 295 255 210 212 159 149 126 134 117 116 117 98 100 118 124 105 137 162 154 154 150 147 149 147 147 145 139 129 130 121 121 122 119 115 112 113 106 100 91 85 78 70
263 283 246 194 156 143 106 118 110 117 108 99 94 100 111 123 114 103 154 170 151 145 145 145 146 143 140 138 134 127 122 129 125 124 117 114 105 93 86 86 80 74 70
248 5 140 112 64 113 123 120 126 117 106 113 105 103 106 109 97 111 130 251 146 137 148 140 139 142 146 141 139 134 138 127 131 119 113 105 97 90 87 84 84 78 70
51 69 86 103 108 123 122 124 117 123 123 116 111 109 107 98 92 101 96 111 100 112 112 140 138 144 140 143 139 141 133 126 124 113 108 108 101 94 94 91 81 73 65
60 48 83 105 109 112 110 125 116 125 121 120 116 113 114 108 105 100 106 74 74 87 76 67 110 140 139 138 139 135 132 134 125 120 118 111 107 106 95 84 73 61 44
122 98 105 94 99 104 120 119 116 124 116 124 119 105 106 109 96 87 78 70 59 53 67 73 66 76 127 119 126 131 132 127 132 131 129 126 115 110 117 101 88 72 46
99 103 119 117 104 110 107 108 122 119 123 139 133 121 128 117 86 72 53 62 74 91 77 72 81 74 70 75 118 132 143 140 139 140 140 137 127 127 127 133 140 121 53
101 48 91 116 112 109 95 112 116 123 101 105 103 155 132 134 117 79 62 76 57 61 57 73 75 84 95 98 85 151 141 148 153 144 153 157 176 175 121 159 183 331 2
71 77 95 128 110 126 111 106 123 129 135 160 67 25 81 113 114 112 52 54 51 61 75 78 87 95 101 111 140 158 144 158 154 161 173 190 187 92 68 27 343 341 348
151 235 153 126 109 116 135 144 145 139 148 127 86 117 110 78 71 97 104 74 41 11 32 55 85 89 132 121 121 157 146 126 107 142 115 61 43 43 30 16 3 349 342
91 98 100 140 155 135 141 148 167 151 130 95 92 134 135 146 145 121 102 103 137 202 147 182 165 176 152 194 190 154 151 165 183 89 93 98 104 58 26 8 358 350 344
70 72 66 92 137 132 138 136 151 147 165 138 142 143 133 125 117 104 117 133 129 103 285 70 211 192 202 192 239 157 179 202 215 207 170 130 71 45 23 14 11 7 8
81 112 75 78 91 86 106 135 143 134 121 132 135 129 128 134 139 132 139 135 79 71 23 251 302 235 223 191 207 192 197 207 214 177 121 77 58 56 51 40 27 25 24
64 73 105 103 90 79 86 89 97 102 115 113 120 120 118 123 120 119 120 135 133 127 239 266 176 223 223 203 232 189 204 244 227 136 126 103 98 86 66 38 34 40 53
64 70 66 68 69 68 64 78 80 76 86 70 89 95 96 84 95 119 129 125 113 130 139 187 234 226 218 359 253 171 248 267 99 121 117 117 97 57 35 8 359 74 86
74 69 81 79 75 66 59 79 76 80 81 79 67 84 85 124 129 125 129 133 142 123 118 67 145 23 55 91 74 63 64 77 96 115 112 90 71 71 46 31 31 88 99
74 94 90 86 77 76 72 78 78 75 88 81 73 80 66 85 77 91 95 97 140 149 122 119 53 41 69 49 88 68 31 76 119 103 88 85 90 70 36 21 87 151 170
107 87 83 88 98 96 89 78 90 85 80 85 87 94 102 100 89 88 118 92 83 81 116 126 104 50 63 28 68 52 41 54 82 89 87 74 87 59 45 30 30 224 29
110 97 90 96 96 98 97 96 96 88 78 68 66 75 83 97 122 123 95 110 109 100 94 113 94 116 107 30 77 97 41 27 48 24 46 68 71 47 53 34 33 20 4
112 113 111 99 103 107 117 112 107 112 112 100 83 85 90 119 127 121 118 112 120 100 119 109 100 92 54 48 126 187 126 338 318 4 46 17 33 23 21 9 12 15 27
113 110 106 114 102 95 119 113 116 113 105 113 115 88 73 79 76 77 84 102 142 142 139 132 142 154 194 179 160 152 130 111 224 318 67 286 11 18 348 1 347 13 14
119 116 117 121 130 138 141 126 124 129 135 142 142 139 116 95 102 101 77 73 72 65 99 155 160 183 169 190 154 138 157 154 195 266 123 250 341 7 346 355 342 346 349
142 144 151 150 142 161 168 150 140 141 144 163 168 178 165 170 175 146 122 104 85 81 138 176 174 172 171 162 166 167 166 155 57 322 125 178 316 323 348 322 319 343 329
155 169 168 168 164 182 177 168 157 162 174 200 203 200 189 191 205 176 150 145 105 21 19 37 65 106 135 155 155 116 114 92 347 280 337 106 325 337 350 305 318 309 299
167 160 173 191 193 191 197 182 166 163 185 204 222 219 207 201 194 179 165 165 170 208 148 97 69 87 130 123 109 87 138 115 120 352 267 88 360 50 339 280 299 303 308